Flag for Romania Weather past 2 weeks in Timișoara, Romania

Now
43 °F

Passing clouds.


Feels Like: 43 °F
Forecast: 42 / 52 °F
Wind: No wind

Location: Timisoara Airport

Current Time: Oct 26, 2014 at 12:40:21 AM

Latest Report: Oct 26, 2014 at 12:00 AM


Visibility: N/A

Pressure: 30.30 "Hg

Humidity: 100%

Dew point: 43 °F

Location of TimișoaraLocation

Historic Weather in Timișoara — Graph

°F

Timișoara temperature yesterday

Maximum temperature yesterday: 52 °F (at 1:30 PM)
Minimum temperature yesterday: 41 °F (at 8:00 PM)
Average temperature yesterday: 46 °F

Past Weeks' High & Low Weather Summary

 TemperatureHumidityPressure
High81 °F (Oct 14, 3:30 PM)100% (Oct 11, 12:00 AM)30.39 "Hg (Oct 11, 12:00 AM)
Low41 °F (Oct 25, 8:00 PM)39% (Oct 11, 3:30 PM)29.50 "Hg (Oct 22, 7:30 AM)
Average57 °F89%29.97 "Hg
* Reported Oct 10 11:00 PM — Oct 25 11:00 PM, Timișoara, Weather by CustomWeather, © 2014

Note: Actual official high and low records may vary slightly from our data, if they occured in-between our weather recording intervals... More about our weather records

Advertising

Timișoara weather history for previous 24 hours

 ConditionsComfort  
Time TempWeatherWind HumidityBarometerVisibility
11:00 PM
Oct 25
43 °FPassing clouds.2 mph93%30.30 "HgN/A
10:30 PM41 °FPassing clouds.3 mph100%30.30 "HgN/A
10:00 PM43 °FPassing clouds.No wind93%30.30 "HgN/A
9:30 PM41 °FPassing clouds.3 mph100%30.30 "HgN/A
9:00 PM41 °FClear.1 mph100%30.27 "Hg5 mi
8:30 PM41 °FClear.3 mph100%30.27 "Hg5 mi
8:00 PM41 °FPassing clouds.1 mph100%30.27 "HgN/A
7:30 PM43 °FPassing clouds.5 mph93%30.27 "HgN/A
7:00 PM45 °FPassing clouds.3 mph93%30.27 "HgN/A
6:30 PM45 °FScattered clouds.2 mph93%30.27 "HgN/A
6:00 PM46 °FPartly sunny.3 mph93%30.27 "HgN/A
5:30 PM46 °FMore clouds than sun.5 mph93%30.27 "HgN/A
5:00 PM48 °FMore clouds than sun.6 mph87%30.24 "HgN/A
4:30 PM48 °FMore clouds than sun.6 mph87%30.24 "HgN/A
4:00 PM46 °FMore clouds than sun.7 mph93%30.24 "HgN/A
3:30 PM46 °FMore clouds than sun.8 mph93%30.24 "HgN/A
3:00 PM48 °FPartly sunny.10 mph94%30.24 "HgN/A
2:30 PM50 °FPartly sunny.8 mph88%30.24 "HgN/A
2:00 PM50 °FPartly sunny.7 mph88%30.24 "HgN/A
1:30 PM52 °FScattered clouds.6 mph77%30.24 "HgN/A
1:00 PM50 °FPassing clouds.6 mph76%30.24 "HgN/A
12:30 PM50 °FPassing clouds.7 mph76%30.24 "HgN/A
12:00 PM50 °FPassing clouds.3 mph76%30.21 "HgN/A
11:30 AM48 °FPassing clouds.5 mph87%30.21 "HgN/A
11:00 AM46 °FPassing clouds.3 mph93%30.21 "HgN/A
10:30 AM45 °FPassing clouds.2 mph93%30.21 "HgN/A
10:00 AM45 °FPassing clouds.2 mph93%30.21 "HgN/A
9:30 AM43 °FPassing clouds.2 mph100%30.21 "HgN/A
9:00 AM43 °FPassing clouds.3 mph93%30.21 "HgN/A
8:30 AM43 °FPassing clouds.2 mph100%30.18 "Hg5 mi
8:00 AM43 °FFog.3 mph93%30.18 "Hg3 mi
7:30 AM45 °FFog.3 mph93%30.18 "Hg3 mi
7:00 AM45 °FFog.5 mph100%30.15 "Hg2 mi
6:30 AM45 °FFog.3 mph100%30.15 "Hg1 mi
6:00 AM45 °FFog.6 mph100%30.15 "Hg1 mi
5:30 AM46 °FFog.6 mph93%30.12 "Hg1 mi
5:00 AM46 °FFog.7 mph100%30.12 "Hg1 mi
4:30 AM46 °FFog.8 mph100%30.12 "Hg2 mi
4:00 AM46 °FPassing clouds.7 mph100%30.12 "Hg4 mi
3:30 AM48 °FFog.7 mph94%30.12 "Hg3 mi
3:00 AM48 °FFog.5 mph100%30.12 "Hg3 mi
2:30 AM48 °FPassing clouds.6 mph100%30.12 "Hg4 mi
2:00 AM48 °FPassing clouds.6 mph100%30.12 "HgN/A
1:30 AM48 °FPassing clouds.6 mph100%30.12 "HgN/A
1:00 AM48 °FPassing clouds.7 mph100%30.12 "HgN/A
12:30 AM48 °FPassing clouds.3 mph100%30.12 "HgN/A
12:00 AM48 °FPassing clouds.7 mph100%30.12 "HgN/A
Weather by CustomWeather, © 2014

See weather overviewHow to use our weather pages